Miscellaneous Local Product
Issued by NWS North Platte, NE

Home | Current Version | Previous Version | Graphics & Text | Print | Product List | Glossary On
Versions: 1 2 3 4 5 6 7 8 9 10 11 12 13 14 15 16 17 18 19 20 21 22 23 24 25 26 27 28 29 30 31 32 33 34 35 36 37 38 39 40 41 42 43 44 45 46 47 48 49 50
508
AXUS43 KLBF 201510
MISLBF


WESTERN AND NORTH CENTRAL NEBRASKA HOURLY WEATHER ROUNDUP
NATIONAL WEATHER SERVICE NORTH PLATTE NE
1000 AM CDT FRI APR 20 2018

NOTE: "FAIR" INDICATES FEW OR NO CLOUDS BELOW 12,000 FEET WITH NO
SIGNIFICANT WEATHER AND/OR OBSTRUCTIONS TO VISIBILITY.

NOTE: STATIONS NOT REPORTING VARIABLES SUCH AS SKY/WEATHER OR
PRESSURE ARE PROVIDED BY RAWS AND APRS NETWORKS AND ARE NOT UNDER
NATIONAL WEATHER SERVICE QUALITY CONTROL.

...OBSERVATIONS IN AND NEAR THE EASTERN PANHANDLE OF NEBRASKA...

CITY           SKY/WX    TMP DP  RH WIND       PRES   REMARKS
PINE RIDGE     CLOUDY    46  30  53 SE9       30.15R
GORDON         FAIR      46  29  52 SE16      30.15R
CHADRON        CLOUDY    48  30  49 S12G23    30.12R
ALLIANCE       CLOUDY    43  30  60 S30G40    30.09S
SIDNEY         CLOUDY    39  30  70 SE22G36   30.08F WCI  29
CRESCENT LAKE    N/A     42  30  62 S15G28      N/A
$$

...OBSERVATIONS IN NORTHERN NEBRASKA AND FAR SOUTHERN SOUTH DAKOTA...

CITY           SKY/WX    TMP DP  RH WIND       PRES   REMARKS
WINNER         FAIR      41  30  65 SE15      30.29S
VALENTINE      CLOUDY    47  29  49 S17       30.24F
AINSWORTH      CLOUDY    45  32  60 S18       30.26S
O`NEILL        CLOUDY    43  33  69 SE9       30.33F
THEDFORD       CLOUDY    46  30  53 S17G26    30.24S
BROKEN BOW     CLOUDY    44  31  60 SE16      30.26F
ORD            CLOUDY    45  32  60 SE12G20   30.31R
ALBION         CLOUDY    44  34  68 SE9       30.36F
VALENTINE NWR    N/A     41  28  60 SE13        N/A
HALSEY           N/A     45  29  52 SE9G18      N/A
BUTTE            N/A     38  33  82 SE10        N/A  WCI  31
CHAMBERS         N/A     49  35  59 S6          N/A
EWING            N/A     43  36  76 S7          N/A
$$

...OBSERVATIONS IN SOUTHWEST NEBRASKA AND FAR NORTHEAST COLORADO...

CITY           SKY/WX    TMP DP  RH WIND       PRES   REMARKS
WRAY           CLOUDY    45  30  57 SE21G28   30.11S
HOLYOKE        PTSUNNY   43  32  65 SE18      30.13R
IMPERIAL       CLOUDY    44  29  55 SE29G38   30.15F
OGALLALA       CLOUDY    45  29  54 SE15G24   30.16F
NORTH PLATTE   CLOUDY    45  29  53 S14G25    30.22S
MCCOOK         CLOUDY    44  29  55 SE13G22   30.23S
LEXINGTON      CLOUDY    46  32  58 SE16      30.28R
STAPLETON        N/A     43  32  64 S3          N/A
GOTHENBURG       N/A     43  28  56 SE9         N/A
CALLAWAY         N/A     41  32  69 S22         N/A
$$

...OBSERVATIONS IN CENTRAL LINCOLN COUNTY AREA...

CITY           SKY/WX    TMP DP  RH WIND       PRES   REMARKS
N.P. AIRPORT   CLOUDY    45  29  53 S14G25    30.22S
N.P. DOWNTOWN    N/A     44  30  58 SE3G12      N/A
N.P. HILLCREST   N/A     44  31  60 SE15        N/A
$$

...OBSERVATIONS ACROSS THE ROCKIES AND WESTERN HIGH PLAINS...

CITY           SKY/WX    TMP DP  RH WIND       PRES   REMARKS
RAPID CITY     CLOUDY    43  30  60 SE16      30.15S
SCOTTSBLUFF    CLOUDY    43  31  62 E16       30.06F
CHEYENNE       CLOUDY    39  27  62 SE18G24   29.97S WCI  30
DENVER         PTSUNNY   51  26  37 S16       29.93R
BERTHOUD PASS  CLOUDY    23  14  68 S24G37    30.01R WCI   7
MONARCH PASS   FOG       27  27 100 SE16G24   30.06F VSB<1/4 WCI  14
ASPEN          SNOW      33  32  96 CALM      29.91S VSB 1/2
STEAMBOAT      CLOUDY    37  35  92 CALM      29.91S
LARAMIE        PTSUNNY   35  24  64 SE14      29.92R WCI  26
CASPER         CLOUDY    38  27  64 NE9       30.01R WCI  31
$$

...OBSERVATIONS ACROSS THE NORTHERN PLAINS...

CITY           SKY/WX    TMP DP  RH WIND       PRES   REMARKS
BISMARCK       PTSUNNY   45  30  55 SE16      30.33S
FARGO          FAIR      46  32  58 S7        30.43F
PIERRE         CLOUDY    39  32  76 SE15      30.29S WCI  31
SIOUX FALLS    CLOUDY    39  26  59 SE9       30.43S WCI  33
$$

...OBSERVATIONS ACROSS THE CENTRAL AND SOUTHERN PLAINS...

CITY           SKY/WX    TMP DP  RH WIND       PRES   REMARKS
OMAHA          CLOUDY    49  30  48 SE8       30.42F
GRAND ISLAND   CLOUDY    46  33  60 SE10      30.34S
KANSAS CITY    PTSUNNY   52  31  44 SE14      30.44F
WICHITA        CLOUDY    52  32  46 SE20      30.32F
DODGE CITY     CLOUDY    48  29  47 SE23G32   30.21F
OKLAHOMA CITY  CLOUDY    53  34  48 SE17      30.29S
DALLAS         MOSUNNY   55  35  47 E16       30.29S
AMARILLO       CLOUDY    47  31  53 SE29G39   30.09F
$$




USA.gov is the U.S. government's official web portal to all federal, state and local government web resources and services.